This is the latest recevied weather packets stored in our database for station/object WR9A-13. If no packets are shown the sender has not sent any weather packets the latest 10 day(s).
| Time | Temp. | Humidity | Pressure | Rain* | Wind** | Luminosity | Snow |
|---|---|---|---|---|---|---|---|
| 1777749321 | 12.78° C | 38% | 1019.4 hPa | 0.25 mm | - | - | - |
| 1777749018 | 12.22° C | 44% | 1019.5 hPa | 0.25 mm | - | - | - |
| 1777748726 | 12.22° C | 41% | 1019.6 hPa | 0.25 mm | - | - | - |
| 1777748416 | 12.22° C | 39% | 1019.5 hPa | 0.25 mm | - | - | - |
| 1777748132 | 11.67° C | 40% | 1019.5 hPa | 0.25 mm | - | - | - |
| 1777747819 | 11.67° C | 40% | 1019.6 hPa | 0.25 mm | - | - | - |
| 1777747536 | 11.67° C | 41% | 1019.7 hPa | 0.25 mm | - | - | - |
| 1777747224 | 12.22° C | 40% | 1019.7 hPa | 0.25 mm | - | - | - |
| 1777746920 | 11.67° C | 41% | 1019.8 hPa | 0.25 mm | - | - | - |
| 1777746627 | 11.67° C | 41% | 1019.9 hPa | 0.25 mm | - | - | - |
| 1777746323 | 12.22° C | 40% | 1019.8 hPa | 0.25 mm | - | - | - |
| 1777746031 | 12.22° C | 43% | 1019.8 hPa | 0 mm | - | - | - |
| 1777745727 | 11.67° C | 42% | 1019.9 hPa | 0 mm | - | - | - |
| 1777745415 | 11.67° C | 39% | 1019.9 hPa | 0 mm | - | - | - |
| 1777745114 | 11.67° C | 40% | 1019.9 hPa | 0 mm | - | - | - |
| 1777744815 | 11.67° C | 39% | 1019.9 hPa | 0 mm | - | - | - |
| 1777744531 | 11.67° C | 41% | 1019.9 hPa | 0 mm | - | - | - |
| 1777744228 | 11.11° C | 43% | 1020 hPa | 0 mm | - | - | - |
| 1777743916 | 11.11° C | 41% | 1020 hPa | 0 mm | - | - | - |
| 1777743633 | 11.11° C | 40% | 1020.2 hPa | 0 mm | - | - | - |
| 1777743320 | 11.11° C | 39% | 1020.1 hPa | 0 mm | - | - | - |
| 1777743037 | 11.11° C | 39% | 1020.2 hPa | 0 mm | - | - | - |
| 1777742725 | 11.67° C | 40% | 1020.2 hPa | 0 mm | - | - | - |
| 1777742423 | 11.67° C | 39% | 1020.2 hPa | 0 mm | - | - | - |
| 1777742129 | 11.11° C | 39% | 1020.3 hPa | 0 mm | - | - | - |
* Rain latest hour (hover to see other rain measurements)
** Current wind speed in m/s (hover to see current wind gust speed)